Regional Weather Roundup
Issued by NWS

Home | Current Version | Previous Version | Graphics & Text | Print | Product List | Glossary On
Versions: 1 2 3 4 5 6 7 8 9 10 11 12 13 14 15 16 17 18 19 20 21 22 23 24 25 26 27 28
000
ASUS45 KSLC 240010
RWRUT

UTAH REGIONAL WEATHER ROUNDUP
NATIONAL WEATHER SERVICE SALT LAKE CITY UT
500 PM MST THU FEB 23 2017

UTZ001>011-023>025-240100-

NORTHERN UTAH

CITY           SKY/WX    TMP DP  RH WIND       PRES   REMARKS
BRIGHAM CITY     N/A     30  26  87 NW5       29.84R WCI  25
HILL AFB       LGT SNOW  30  19  63 W16       29.81R WCI  18
LOGAN          LGT SNOW  30  25  81 NW6       29.82R WCI  24
OGDEN          FLURRIES  31  20  63 W13G18    29.82R WCI  21
SALT LAKE CITY FLURRIES  31  23  72 NW9       29.85R WCI  23
TOOELE VALLEY  LGT SNOW  32  27  80 NW9G17    29.88R WCI  24
WENDOVER       PTSUNNY   34  12  40 N16G26    29.86R WCI  23
HEBER CITY     CLOUDY    27  16  63 W13G18    29.77R WCI  16
WEST JORDAN    CLOUDY    32  29  89 CALM      29.85S

$$

UTZ011>015-024>027-240100-

CENTRAL/NORTHEAST UTAH

CITY           SKY/WX    TMP DP  RH WIND       PRES   REMARKS
PROVO AIRPORT  MIX PCPN  28  24  85 CALM      29.87R
MOAB/CANYONLAN PTSUNNY   39  15  37 NW13      29.74R WCI  31
DELTA          CLOUDY    30  27  86 E5        29.86R WCI  25
PRICE          MOSUNNY   31  12  45 NW10      29.73R WCI  22
RICHFIELD      CLOUDY    36   9  32 W7        29.83  WCI  30
ROOSEVELT      CLOUDY    32  27  80 E5        29.73R WCI  27
VERNAL         LGT SNOW  25  23  92 E3        29.73R FOG

$$

UTZ013>016-019>022-027-240100-

SOUTHERN UTAH

CITY           SKY/WX    TMP DP  RH WIND       PRES   REMARKS
BRYCE CANYON   CLOUDY    24   5  44 NW12      29.77R WCI  13
CEDAR CITY     PTSUNNY   34  15  46 W12       29.81R WCI  25
MILFORD        PTSUNNY   33  20  58 S9        29.82R WCI  25
ST GEORGE      MOCLDY    49  13  23 SW15G23   29.87S
HANKSVILLE     MOSUNNY   39   5  24 NW18      29.79R WCI  30
BLANDING       MOSUNNY   36  -2  20 W13       29.81R WCI  27

$$

REGIONAL REPORTS     COLORADO/ARIZONA

CITY           SKY/WX    TMP DP  RH WIND       PRES   REMARKS
CRAIG, CO      PTCLDY    26  16  65 W12       29.67R WCI  16
GRAND JUNCTION CLOUDY    35  18  49 NW21      29.73R WCI  24
RIFLE, CO      MOCLDY    31  18  58 W6        29.72R WCI  25
MONTROSE, CO   MOSUNNY   36  -2  20 W15G26    29.73R WCI  27
CORTEZ, CO     MOSUNNY   37   5  26 W13       29.75R WCI  29
COLORADO CITY    N/A     41  12  30 MISG      29.88R
PAGE, AZ       MOSUNNY   45  -9  10 W15G26    29.79R
GRAND CANYON   MOSUNNY   34   4  28 W10G24    29.81R WCI  26
KINGMAN, AZ    SUNNY     49 -18   5 W12       29.89S
FLAGSTAFF, AZ  CLOUDY    36  13  38 W21G29    29.81R WCI  25

$$

REGIONAL REPORTS    NEVADA/IDAHO/WYOMING

CITY           SKY/WX    TMP DP  RH WIND       PRES   REMARKS
LAS VEGAS, NV  MOSUNNY   54   7  15 S3        29.89R
ELY, NY        CLOUDY    25  12  58 N10G18    29.85R WCI  15
ELKO, NV       CLOUDY    29  13  51 NW14      29.92R WCI  18
POCATELLO, ID  SNOW      26  24  92 SW25      29.81R VSB 1/2 WCI  11
BURLEY, ID     LGT SNOW  28  22  78 SW16      29.84R VSB 1   WCI  16
FORT BRIDGER,  CLOUDY    22  20  93 W20G25    29.72R FOG     WCI   7
EVANSTON, WY   CLOUDY    19  12  74 SW16      29.71R WCI   4
ROCK SPRINGS,  MIX PCPN  21  15  78 N23G30    29.66R WCI   5

$$




USA.gov is the U.S. government's official web portal to all federal, state and local government web resources and services.